Terminal Aerodrome Forecast
Issued by NWS

Home | Current Version | Previous Version | Graphics & Text | Print | Product List | Glossary On
Versions: 1 2 3 4 5 6 7 8 9 10 11 12 13
000
FTUS43 KBIS 281730
TAFDIK
TAF
KDIK 281730Z 2818/2918 08011G20KT P6SM SCT025 BKN035 OVC090
      TEMPO 2818/2822 BKN025 OVC035
     FM290200 09007KT P6SM SCT060 BKN150=

USA.gov is the U.S. government's official web portal to all federal, state and local government web resources and services.